Time,TemperatureF,DewpointF,PressureIn,WindDirection,WindDirectionDegrees,WindSpeedMPH,WindSpeedGustMPH,Humidity,HourlyPrecipIn,Conditions,Clouds,dailyrainin,SoftwareType,DateUTC
2013-02-13 00:01:00,38.7,36.3,30.35,SW,224,3.0,4.0,91,0.00,,,0.00,meteohub,2013-02-13 08:01:00,
2013-02-13 00:06:00,38.8,36.5,30.35,SW,224,3.0,4.0,91,0.00,,,0.00,meteohub,2013-02-13 08:06:00,
2013-02-13 00:12:00,38.8,36.1,30.35,SW,224,2.0,4.0,90,0.00,,,0.00,meteohub,2013-02-13 08:12:00,
2013-02-13 00:17:00,38.7,36.0,30.35,SW,224,3.0,4.0,90,0.00,,,0.00,meteohub,2013-02-13 08:17:00,
2013-02-13 00:22:00,38.8,36.5,30.35,SW,224,3.0,4.0,91,0.00,,,0.00,meteohub,2013-02-13 08:22:00,
2013-02-13 00:27:00,39.0,36.7,30.35,SW,224,3.0,4.0,91,0.00,,,0.00,meteohub,2013-02-13 08:27:00,
2013-02-13 00:32:00,39.6,37.2,30.35,NE,49,3.0,4.0,91,0.00,,,0.00,meteohub,2013-02-13 08:32:00,
2013-02-13 00:37:00,40.3,37.6,30.35,NE,53,3.0,4.0,90,0.00,,,0.00,meteohub,2013-02-13 08:37:00,
2013-02-13 00:42:00,39.7,36.5,30.35,NE,41,3.0,4.0,88,0.00,,,0.00,meteohub,2013-02-13 08:42:00,
2013-02-13 00:47:00,39.4,36.5,30.35,NNE,26,4.0,4.0,89,0.00,,,0.00,meteohub,2013-02-13 08:47:00,
2013-02-13 00:52:00,39.4,36.5,30.35,NNE,26,2.0,4.0,89,0.00,,,0.00,meteohub,2013-02-13 08:52:00,
2013-02-13 00:57:00,39.2,36.5,30.35,NNE,26,5.0,5.0,90,0.00,,,0.00,meteohub,2013-02-13 08:57:00,
2013-02-13 01:02:00,39.4,36.7,30.35,North,10,3.0,5.0,90,0.00,,,0.00,meteohub,2013-02-13 09:02:00,
2013-02-13 01:07:00,39.4,36.5,30.35,ENE,61,2.0,5.0,89,0.00,,,0.00,meteohub,2013-02-13 09:07:00,
2013-02-13 01:11:00,39.4,36.7,30.35,NE,37,4.0,5.0,90,0.00,,,0.00,meteohub,2013-02-13 09:11:00,
2013-02-13 01:17:00,39.7,36.7,30.35,NE,37,3.0,5.0,89,0.00,,,0.00,meteohub,2013-02-13 09:17:00,
2013-02-13 01:22:00,39.4,36.5,30.35,NE,37,2.0,5.0,89,0.00,,,0.00,meteohub,2013-02-13 09:22:00,
2013-02-13 01:27:00,39.4,36.7,30.35,NE,37,3.0,5.0,90,0.00,,,0.00,meteohub,2013-02-13 09:27:00,
2013-02-13 01:32:00,39.0,36.3,30.35,NE,37,2.0,5.0,90,0.00,,,0.00,meteohub,2013-02-13 09:32:00,
2013-02-13 01:37:00,38.7,35.8,30.35,NE,37,2.0,5.0,89,0.00,,,0.00,meteohub,2013-02-13 09:37:00,
2013-02-13 01:42:00,38.1,35.4,30.35,NE,37,3.0,5.0,90,0.00,,,0.00,meteohub,2013-02-13 09:42:00,
2013-02-13 01:47:00,37.9,35.6,30.35,NNE,19,3.0,5.0,91,0.00,,,0.00,meteohub,2013-02-13 09:47:00,
2013-02-13 01:52:00,37.8,35.4,30.35,NE,34,3.0,5.0,91,0.00,,,0.00,meteohub,2013-02-13 09:52:00,
2013-02-13 01:57:00,38.1,35.8,30.35,NNE,17,3.0,5.0,91,0.00,,,0.00,meteohub,2013-02-13 09:57:00,
2013-02-13 02:02:00,38.7,36.3,30.35,NE,49,4.0,6.0,91,0.00,,,0.00,meteohub,2013-02-13 10:02:00,
2013-02-13 02:07:00,39.2,36.5,30.35,NNE,30,3.0,6.0,90,0.00,,,0.00,meteohub,2013-02-13 10:07:00,
2013-02-13 02:12:00,39.7,36.5,30.35,NE,46,4.0,6.0,88,0.00,,,0.00,meteohub,2013-02-13 10:12:00,
2013-02-13 02:17:00,40.1,36.3,30.35,NNE,22,4.0,5.0,86,0.00,,,0.00,meteohub,2013-02-13 10:17:00,
2013-02-13 02:22:00,39.9,36.1,30.35,NE,54,4.0,5.0,86,0.00,,,0.00,meteohub,2013-02-13 10:22:00,
2013-02-13 02:27:00,40.5,36.3,30.35,NE,42,2.0,5.0,85,0.00,,,0.00,meteohub,2013-02-13 10:27:00,
2013-02-13 02:32:00,41.2,36.7,30.34,North,5,4.0,5.0,84,0.00,,,0.00,meteohub,2013-02-13 10:32:00,
2013-02-13 02:37:00,40.6,36.1,30.34,North,9,4.0,5.0,84,0.00,,,0.00,meteohub,2013-02-13 10:37:00,
2013-02-13 02:41:00,41.5,36.7,30.34,NE,44,2.0,5.0,83,0.00,,,0.00,meteohub,2013-02-13 10:41:00,
2013-02-13 02:47:00,42.3,36.9,30.34,NE,44,2.0,5.0,81,0.00,,,0.00,meteohub,2013-02-13 10:47:00,
2013-02-13 02:52:00,42.4,36.3,30.34,NNE,30,5.0,7.0,79,0.00,,,0.00,meteohub,2013-02-13 10:52:00,
2013-02-13 02:57:00,43.2,36.7,30.33,NE,54,3.0,7.0,78,0.00,,,0.00,meteohub,2013-02-13 10:57:00,
2013-02-13 03:02:00,43.0,36.3,30.34,NNW,345,3.0,7.0,77,0.00,,,0.00,meteohub,2013-02-13 11:02:00,
2013-02-13 03:07:00,42.6,36.3,30.33,North,5,3.0,7.0,78,0.00,,,0.00,meteohub,2013-02-13 11:07:00,
2013-02-13 03:12:00,43.2,36.7,30.33,North,5,2.0,7.0,78,0.00,,,0.00,meteohub,2013-02-13 11:12:00,
2013-02-13 03:17:00,43.9,36.9,30.33,ENE,59,4.0,7.0,76,0.00,,,0.00,meteohub,2013-02-13 11:17:00,
2013-02-13 03:22:00,44.4,37.0,30.33,NE,52,4.0,6.0,75,0.00,,,0.00,meteohub,2013-02-13 11:22:00,
2013-02-13 03:27:00,45.1,37.0,30.33,ENE,58,5.0,8.0,73,0.00,,,0.00,meteohub,2013-02-13 11:27:00,
2013-02-13 03:32:00,45.0,36.9,30.33,ENE,61,2.0,8.0,73,0.00,,,0.00,meteohub,2013-02-13 11:32:00,
2013-02-13 03:37:00,45.0,36.9,30.33,NNE,22,3.0,8.0,73,0.00,,,0.00,meteohub,2013-02-13 11:37:00,
2013-02-13 03:42:00,45.3,36.9,30.33,NE,38,3.0,7.0,72,0.00,,,0.00,meteohub,2013-02-13 11:42:00,
2013-02-13 03:47:00,45.3,36.9,30.33,ENE,62,3.0,7.0,72,0.00,,,0.00,meteohub,2013-02-13 11:47:00,
2013-02-13 03:52:00,45.7,36.9,30.33,NE,51,1.0,6.0,71,0.00,,,0.00,meteohub,2013-02-13 11:52:00,
2013-02-13 03:57:00,45.1,36.3,30.33,NE,51,2.0,6.0,71,0.00,,,0.00,meteohub,2013-02-13 11:57:00,
2013-02-13 04:02:00,43.9,36.1,30.33,NE,51,1.0,4.0,74,0.00,,,0.00,meteohub,2013-02-13 12:02:00,
2013-02-13 04:07:00,43.2,35.1,30.32,NE,51,0.0,3.0,73,0.00,,,0.00,meteohub,2013-02-13 12:07:00,
2013-02-13 04:12:00,41.7,35.4,30.33,NE,51,0.0,2.0,78,0.00,,,0.00,meteohub,2013-02-13 12:12:00,
2013-02-13 04:17:00,41.0,34.7,30.33,NE,51,0.0,2.0,78,0.00,,,0.00,meteohub,2013-02-13 12:17:00,
2013-02-13 04:22:00,40.6,34.7,30.33,NE,49,3.0,3.0,79,0.00,,,0.00,meteohub,2013-02-13 12:22:00,
2013-02-13 04:27:00,41.5,35.2,30.33,NE,41,2.0,4.0,78,0.00,,,0.00,meteohub,2013-02-13 12:27:00,
2013-02-13 04:32:00,42.4,35.4,30.33,ENE,68,3.0,5.0,76,0.00,,,0.00,meteohub,2013-02-13 12:32:00,
2013-02-13 04:37:00,43.2,35.1,30.33,NE,50,1.0,6.0,73,0.00,,,0.00,meteohub,2013-02-13 12:37:00,
2013-02-13 04:42:00,42.6,34.5,30.33,NE,53,3.0,6.0,73,0.00,,,0.00,meteohub,2013-02-13 12:42:00,
2013-02-13 04:47:00,43.2,34.7,30.33,NE,53,2.0,6.0,72,0.00,,,0.00,meteohub,2013-02-13 12:47:00,
2013-02-13 04:52:00,43.7,34.9,30.33,NE,52,4.0,6.0,71,0.00,,,0.00,meteohub,2013-02-13 12:52:00,
2013-02-13 04:57:00,44.8,34.5,30.33,NE,45,4.0,7.0,67,0.00,,,0.00,meteohub,2013-02-13 12:57:00,
2013-02-13 05:02:00,45.5,34.0,30.33,ENE,59,4.0,8.0,64,0.00,,,0.00,meteohub,2013-02-13 13:02:00,
2013-02-13 05:07:00,46.6,33.8,30.33,ENE,57,5.0,8.0,61,0.00,,,0.00,meteohub,2013-02-13 13:07:00,
2013-02-13 05:12:00,47.8,34.2,30.33,NE,38,4.0,9.0,59,0.00,,,0.00,meteohub,2013-02-13 13:12:00,
2013-02-13 05:17:00,48.4,33.8,30.32,ENE,58,5.0,10.0,57,0.00,,,0.00,meteohub,2013-02-13 13:17:00,
2013-02-13 05:22:00,49.1,33.6,30.32,NNE,30,8.0,13.0,55,0.00,,,0.00,meteohub,2013-02-13 13:22:00,
2013-02-13 05:27:00,49.6,33.6,30.32,ENE,61,9.0,13.0,54,0.00,,,0.00,meteohub,2013-02-13 13:27:00,
2013-02-13 05:32:00,49.6,33.3,30.32,NNE,15,8.0,13.0,53,0.00,,,0.00,meteohub,2013-02-13 13:32:00,
2013-02-13 05:37:00,49.6,33.3,30.32,ENE,62,8.0,13.0,53,0.00,,,0.00,meteohub,2013-02-13 13:37:00,
2013-02-13 05:42:00,49.8,33.4,30.32,NE,43,5.0,13.0,53,0.00,,,0.00,meteohub,2013-02-13 13:42:00,
2013-02-13 05:47:00,49.8,32.9,30.33,NE,38,6.0,13.0,52,0.00,,,0.00,meteohub,2013-02-13 13:47:00,
2013-02-13 05:52:00,49.6,33.3,30.32,ENE,58,8.0,12.0,53,0.00,,,0.00,meteohub,2013-02-13 13:52:00,
2013-02-13 05:57:00,49.6,32.7,30.33,ENE,57,4.0,12.0,52,0.00,,,0.00,meteohub,2013-02-13 13:57:00,
2013-02-13 06:02:00,49.5,33.1,30.33,NE,36,7.0,12.0,53,0.00,,,0.00,meteohub,2013-02-13 14:02:00,
2013-02-13 06:07:00,49.3,32.9,30.32,NNE,32,3.0,11.0,53,0.00,,,0.00,meteohub,2013-02-13 14:07:00,
2013-02-13 06:12:00,48.7,33.3,30.32,NE,36,2.0,10.0,55,0.00,,,0.00,meteohub,2013-02-13 14:12:00,
2013-02-13 06:17:00,47.5,33.4,30.33,NE,45,2.0,9.0,58,0.00,,,0.00,meteohub,2013-02-13 14:17:00,
2013-02-13 06:22:00,46.2,33.1,30.32,NNE,33,4.0,9.0,60,0.00,,,0.00,meteohub,2013-02-13 14:22:00,
2013-02-13 06:27:00,45.7,33.4,30.33,ENE,57,3.0,5.0,62,0.00,,,0.00,meteohub,2013-02-13 14:27:00,
2013-02-13 06:32:00,45.5,33.6,30.33,ENE,58,2.0,5.0,63,0.00,,,0.00,meteohub,2013-02-13 14:32:00,
2013-02-13 06:37:00,44.8,33.3,30.33,ENE,58,3.0,5.0,64,0.00,,,0.00,meteohub,2013-02-13 14:37:00,
2013-02-13 06:42:00,44.4,33.4,30.33,NE,46,3.0,4.0,65,0.00,,,0.00,meteohub,2013-02-13 14:42:00,
2013-02-13 06:47:00,44.8,33.8,30.33,ENE,59,2.0,4.0,65,0.00,,,0.00,meteohub,2013-02-13 14:47:00,
2013-02-13 06:52:00,44.1,33.8,30.33,NNE,31,3.0,4.0,67,0.00,,,0.00,meteohub,2013-02-13 14:52:00,
2013-02-13 06:57:00,43.2,33.3,30.33,NNE,33,3.0,4.0,68,0.00,,,0.00,meteohub,2013-02-13 14:57:00,
2013-02-13 07:02:00,41.5,33.3,30.33,NNE,30,4.0,4.0,72,0.00,,,0.00,meteohub,2013-02-13 15:02:00,
2013-02-13 07:07:00,41.5,33.3,30.33,NE,51,3.0,5.0,72,0.00,,,0.00,meteohub,2013-02-13 15:07:00,
2013-02-13 07:12:00,41.5,33.3,30.33,NE,46,4.0,5.0,72,0.00,,,0.00,meteohub,2013-02-13 15:12:00,
2013-02-13 07:17:00,42.4,33.4,30.33,ENE,73,4.0,5.0,70,0.00,,,0.00,meteohub,2013-02-13 15:17:00,
2013-02-13 07:21:00,43.3,33.1,30.33,NNE,22,4.0,8.0,67,0.00,,,0.00,meteohub,2013-02-13 15:21:00,
2013-02-13 07:26:00,45.0,33.4,30.33,ENE,61,7.0,8.0,64,0.00,,,0.00,meteohub,2013-02-13 15:26:00,
2013-02-13 07:31:00,46.4,33.6,30.34,ENE,61,7.0,8.0,61,0.00,,,0.00,meteohub,2013-02-13 15:31:00,
2013-02-13 07:36:00,47.7,33.6,30.34,NE,50,6.0,9.0,58,0.00,,,0.00,meteohub,2013-02-13 15:36:00,
2013-02-13 07:41:00,48.4,33.4,30.33,NE,46,7.0,9.0,56,0.00,,,0.00,meteohub,2013-02-13 15:41:00,
2013-02-13 07:46:00,48.7,32.9,30.34,NE,39,5.0,9.0,54,0.00,,,0.00,meteohub,2013-02-13 15:46:00,
2013-02-13 07:51:00,49.3,32.9,30.34,NE,52,5.0,9.0,53,0.00,,,0.00,meteohub,2013-02-13 15:51:00,
2013-02-13 07:56:00,49.6,32.7,30.34,ENE,57,5.0,9.0,52,0.00,,,0.00,meteohub,2013-02-13 15:56:00,
2013-02-13 08:01:00,49.8,32.9,30.34,NE,56,5.0,9.0,52,0.00,,,0.00,meteohub,2013-02-13 16:01:00,
2013-02-13 08:07:00,49.8,32.4,30.34,North,5,2.0,10.0,51,0.00,,,0.00,meteohub,2013-02-13 16:07:00,
2013-02-13 08:12:00,49.8,32.4,30.34,NE,47,2.0,10.0,51,0.00,,,0.00,meteohub,2013-02-13 16:12:00,
2013-02-13 08:17:00,49.8,32.4,30.34,ENE,63,4.0,10.0,51,0.00,,,0.00,meteohub,2013-02-13 16:17:00,
2013-02-13 08:22:00,50.2,32.7,30.34,North,5,1.0,8.0,51,0.00,,,0.00,meteohub,2013-02-13 16:22:00,
2013-02-13 08:27:00,50.4,32.9,30.34,NE,48,1.0,8.0,51,0.00,,,0.00,meteohub,2013-02-13 16:27:00,
2013-02-13 08:32:00,50.4,32.9,30.34,NE,51,4.0,6.0,51,0.00,,,0.00,meteohub,2013-02-13 16:32:00,
2013-02-13 08:37:00,50.5,32.5,30.34,North,5,4.0,5.0,50,0.00,,,0.00,meteohub,2013-02-13 16:37:00,
2013-02-13 08:42:00,50.9,32.4,30.34,ENE,58,5.0,11.0,49,0.00,,,0.00,meteohub,2013-02-13 16:42:00,
2013-02-13 08:47:00,51.3,32.7,30.34,ENE,69,2.0,11.0,49,0.00,,,0.00,meteohub,2013-02-13 16:47:00,
2013-02-13 08:52:00,51.3,32.7,30.34,NE,44,6.0,11.0,49,0.00,,,0.00,meteohub,2013-02-13 16:52:00,
2013-02-13 08:57:00,51.3,32.7,30.34,NE,43,6.0,9.0,49,0.00,,,0.00,meteohub,2013-02-13 16:57:00,
2013-02-13 09:02:00,51.4,32.9,30.34,North,355,5.0,10.0,49,0.00,,,0.00,meteohub,2013-02-13 17:02:00,
2013-02-13 09:07:00,52.0,32.9,30.35,NE,39,7.0,10.0,48,0.00,,,0.00,meteohub,2013-02-13 17:07:00,
2013-02-13 09:12:00,52.2,32.5,30.35,North,351,4.0,10.0,47,0.00,,,0.00,meteohub,2013-02-13 17:12:00,
2013-02-13 09:17:00,52.3,33.3,30.35,NNE,26,3.0,10.0,48,0.00,,,0.00,meteohub,2013-02-13 17:17:00,
2013-02-13 09:22:00,52.3,32.2,30.35,NW,321,9.0,9.0,46,0.00,,,0.00,meteohub,2013-02-13 17:22:00,
2013-02-13 09:27:00,52.3,33.3,30.35,NNE,18,3.0,11.0,48,0.00,,,0.00,meteohub,2013-02-13 17:27:00,
2013-02-13 09:32:00,52.9,33.8,30.35,NNE,23,3.0,11.0,48,0.00,,,0.00,meteohub,2013-02-13 17:32:00,
2013-02-13 09:37:00,53.2,33.4,30.35,North,5,9.0,11.0,47,0.00,,,0.00,meteohub,2013-02-13 17:37:00,
2013-02-13 09:42:00,53.8,32.9,30.35,NNE,13,7.0,10.0,45,0.00,,,0.00,meteohub,2013-02-13 17:42:00,
2013-02-13 09:47:00,54.0,32.5,30.35,NNW,348,4.0,13.0,44,0.00,,,0.00,meteohub,2013-02-13 17:47:00,
2013-02-13 09:52:00,54.0,32.5,30.35,ENE,59,8.0,13.0,44,0.00,,,0.00,meteohub,2013-02-13 17:52:00,
2013-02-13 09:57:00,54.1,32.7,30.35,ENE,59,8.0,14.0,44,0.00,,,0.00,meteohub,2013-02-13 17:57:00,
2013-02-13 10:02:00,54.9,34.0,30.35,North,5,3.0,14.0,45,0.00,,,0.00,meteohub,2013-02-13 18:02:00,
2013-02-13 10:07:00,55.0,32.9,30.35,North,9,11.0,14.0,43,0.00,,,0.00,meteohub,2013-02-13 18:07:00,
2013-02-13 10:12:00,55.0,34.2,30.35,NNW,346,3.0,12.0,45,0.00,,,0.00,meteohub,2013-02-13 18:12:00,
2013-02-13 10:17:00,55.6,33.4,30.35,NE,55,5.0,12.0,43,0.00,,,0.00,meteohub,2013-02-13 18:17:00,
2013-02-13 10:22:00,55.6,34.0,30.35,NE,37,4.0,12.0,44,0.00,,,0.00,meteohub,2013-02-13 18:22:00,
2013-02-13 10:27:00,55.8,33.6,30.35,NE,49,5.0,11.0,43,0.00,,,0.00,meteohub,2013-02-13 18:27:00,
2013-02-13 10:32:00,55.8,33.1,30.35,ENE,74,1.0,11.0,42,0.00,,,0.00,meteohub,2013-02-13 18:32:00,
2013-02-13 10:37:00,55.9,33.8,30.35,NNW,348,6.0,10.0,43,0.00,,,0.00,meteohub,2013-02-13 18:37:00,
2013-02-13 10:42:00,56.5,34.9,30.35,NE,43,7.0,10.0,44,0.00,,,0.00,meteohub,2013-02-13 18:42:00,
2013-02-13 10:47:00,57.4,33.8,30.35,NNE,13,2.0,10.0,41,0.00,,,0.00,meteohub,2013-02-13 18:47:00,
2013-02-13 10:52:00,57.4,34.5,30.35,NE,47,5.0,10.0,42,0.00,,,0.00,meteohub,2013-02-13 18:52:00,
2013-02-13 10:57:00,57.7,32.9,30.35,NNW,341,1.0,10.0,39,0.00,,,0.00,meteohub,2013-02-13 18:57:00,
2013-02-13 11:02:00,57.7,33.6,30.35,NW,317,4.0,9.0,40,0.00,,,0.00,meteohub,2013-02-13 19:02:00,
2013-02-13 11:07:00,58.3,33.4,30.35,NNE,27,3.0,9.0,39,0.00,,,0.00,meteohub,2013-02-13 19:07:00,
2013-02-13 11:12:00,57.9,33.8,30.35,NE,38,7.0,9.0,40,0.00,,,0.00,meteohub,2013-02-13 19:12:00,
2013-02-13 11:17:00,58.5,36.0,30.35,NE,41,7.0,9.0,43,0.00,,,0.00,meteohub,2013-02-13 19:17:00,
2013-02-13 11:22:00,58.6,35.1,30.34,NNE,26,5.0,9.0,41,0.00,,,0.00,meteohub,2013-02-13 19:22:00,
2013-02-13 11:27:00,58.5,33.6,30.34,NE,49,8.0,10.0,39,0.00,,,0.00,meteohub,2013-02-13 19:27:00,
2013-02-13 11:32:00,58.5,34.2,30.34,NNW,336,4.0,11.0,40,0.00,,,0.00,meteohub,2013-02-13 19:32:00,
2013-02-13 11:37:00,58.5,35.4,30.34,West,269,3.0,11.0,42,0.00,,,0.00,meteohub,2013-02-13 19:37:00,
2013-02-13 11:42:00,59.2,36.7,30.33,NE,51,6.0,12.0,43,0.00,,,0.00,meteohub,2013-02-13 19:42:00,
2013-02-13 11:47:00,58.6,35.1,30.33,ENE,70,7.0,12.0,41,0.00,,,0.00,meteohub,2013-02-13 19:47:00,
2013-02-13 11:52:00,58.8,36.3,30.33,WNW,290,1.0,12.0,43,0.00,,,0.00,meteohub,2013-02-13 19:52:00,
2013-02-13 11:57:00,59.5,37.0,30.33,North,11,3.0,11.0,43,0.00,,,0.00,meteohub,2013-02-13 19:57:00,
2013-02-13 12:02:00,59.5,34.5,30.32,NE,42,4.0,11.0,39,0.00,,,0.00,meteohub,2013-02-13 20:02:00,
2013-02-13 12:07:00,59.7,36.0,30.32,West,262,3.0,11.0,41,0.00,,,0.00,meteohub,2013-02-13 20:07:00,
2013-02-13 12:12:00,60.3,34.5,30.32,SE,128,1.0,11.0,38,0.00,,,0.00,meteohub,2013-02-13 20:12:00,
2013-02-13 12:17:00,60.8,35.6,30.32,NNE,29,7.0,11.0,39,0.00,,,0.00,meteohub,2013-02-13 20:17:00,
2013-02-13 12:22:00,60.4,36.7,30.32,NE,47,5.0,9.0,41,0.00,,,0.00,meteohub,2013-02-13 20:22:00,
2013-02-13 12:27:00,60.4,35.4,30.31,NE,52,1.0,9.0,39,0.00,,,0.00,meteohub,2013-02-13 20:27:00,
2013-02-13 12:32:00,61.0,35.2,30.31,NW,310,6.0,9.0,38,0.00,,,0.00,meteohub,2013-02-13 20:32:00,
2013-02-13 12:37:00,61.2,37.2,30.31,North,5,5.0,9.0,41,0.00,,,0.00,meteohub,2013-02-13 20:37:00,
2013-02-13 12:42:00,60.4,42.3,30.31,SW,231,2.0,9.0,51,0.00,,,0.00,meteohub,2013-02-13 20:42:00,
2013-02-13 12:47:00,59.5,42.4,30.30,WSW,246,1.0,9.0,53,0.00,,,0.00,meteohub,2013-02-13 20:47:00,
2013-02-13 12:52:00,59.4,44.1,30.30,SW,228,6.0,7.0,57,0.00,,,0.00,meteohub,2013-02-13 20:52:00,
2013-02-13 12:57:00,59.2,42.6,30.30,SW,223,3.0,7.0,54,0.00,,,0.00,meteohub,2013-02-13 20:57:00,
2013-02-13 13:02:00,59.4,42.8,30.30,SW,215,1.0,7.0,54,0.00,,,0.00,meteohub,2013-02-13 21:02:00,
2013-02-13 13:07:00,59.4,43.7,30.30,SW,217,4.0,8.0,56,0.00,,,0.00,meteohub,2013-02-13 21:07:00,
2013-02-13 13:12:00,59.4,43.2,30.29,South,187,4.0,8.0,55,0.00,,,0.00,meteohub,2013-02-13 21:12:00,
2013-02-13 13:17:00,59.2,43.5,30.29,WSW,240,7.0,8.0,56,0.00,,,0.00,meteohub,2013-02-13 21:17:00,
2013-02-13 13:22:00,58.8,43.2,30.29,WSW,244,3.0,7.0,56,0.00,,,0.00,meteohub,2013-02-13 21:22:00,
2013-02-13 13:27:00,59.2,43.9,30.29,SW,226,6.0,7.0,57,0.00,,,0.00,meteohub,2013-02-13 21:27:00,
2013-02-13 13:32:00,59.5,43.9,30.28,SW,232,8.0,8.0,56,0.00,,,0.00,meteohub,2013-02-13 21:32:00,
2013-02-13 13:37:00,59.9,43.7,30.28,SW,227,4.0,8.0,55,0.00,,,0.00,meteohub,2013-02-13 21:37:00,
2013-02-13 13:42:00,60.6,44.4,30.28,SSW,201,3.0,8.0,55,0.00,,,0.00,meteohub,2013-02-13 21:42:00,
2013-02-13 13:47:00,60.4,41.7,30.27,WSW,246,5.0,9.0,50,0.00,,,0.00,meteohub,2013-02-13 21:47:00,
2013-02-13 13:52:00,60.4,41.2,30.27,SW,225,5.0,9.0,49,0.00,,,0.00,meteohub,2013-02-13 21:52:00,
2013-02-13 13:57:00,60.4,41.7,30.27,SW,235,6.0,11.0,50,0.00,,,0.00,meteohub,2013-02-13 21:57:00,
2013-02-13 14:02:00,60.6,41.4,30.27,SW,221,3.0,11.0,49,0.00,,,0.00,meteohub,2013-02-13 22:02:00,
2013-02-13 14:07:00,60.6,40.8,30.27,WSW,253,5.0,11.0,48,0.00,,,0.00,meteohub,2013-02-13 22:07:00,
2013-02-13 14:12:00,60.4,41.2,30.27,SW,215,7.0,9.0,49,0.00,,,0.00,meteohub,2013-02-13 22:12:00,
2013-02-13 14:17:00,60.3,41.0,30.26,West,267,8.0,10.0,49,0.00,,,0.00,meteohub,2013-02-13 22:17:00,
2013-02-13 14:22:00,60.4,41.7,30.26,SW,227,5.0,10.0,50,0.00,,,0.00,meteohub,2013-02-13 22:22:00,
2013-02-13 14:27:00,60.6,43.0,30.26,SW,215,5.0,10.0,52,0.00,,,0.00,meteohub,2013-02-13 22:27:00,
2013-02-13 14:32:00,60.3,43.0,30.26,WSW,244,5.0,10.0,53,0.00,,,0.00,meteohub,2013-02-13 22:32:00,
2013-02-13 14:37:00,60.6,41.4,30.26,West,277,7.0,9.0,49,0.00,,,0.00,meteohub,2013-02-13 22:37:00,
2013-02-13 14:42:00,60.4,41.2,30.26,SW,230,6.0,10.0,49,0.00,,,0.00,meteohub,2013-02-13 22:42:00,
2013-02-13 14:47:00,60.6,43.0,30.26,SW,221,7.0,10.0,52,0.00,,,0.00,meteohub,2013-02-13 22:47:00,
2013-02-13 14:52:00,60.8,42.1,30.25,WSW,244,6.0,10.0,50,0.00,,,0.00,meteohub,2013-02-13 22:52:00,
2013-02-13 14:57:00,60.4,43.2,30.25,SSW,212,3.0,10.0,53,0.00,,,0.00,meteohub,2013-02-13 22:57:00,
2013-02-13 15:02:00,60.3,42.1,30.25,WSW,252,6.0,9.0,51,0.00,,,0.00,meteohub,2013-02-13 23:02:00,
2013-02-13 15:07:00,60.4,41.7,30.25,SW,227,5.0,10.0,50,0.00,,,0.00,meteohub,2013-02-13 23:07:00,
2013-02-13 15:12:00,60.6,40.8,30.25,SW,223,3.0,10.0,48,0.00,,,0.00,meteohub,2013-02-13 23:12:00,
2013-02-13 15:17:00,60.6,42.4,30.25,West,262,6.0,10.0,51,0.00,,,0.00,meteohub,2013-02-13 23:17:00,
2013-02-13 15:22:00,60.3,43.0,30.25,SW,217,4.0,10.0,53,0.00,,,0.00,meteohub,2013-02-13 23:22:00,
2013-02-13 15:27:00,60.3,43.0,30.25,South,189,3.0,10.0,53,0.00,,,0.00,meteohub,2013-02-13 23:27:00,
2013-02-13 15:32:00,60.1,43.9,30.25,SSW,197,5.0,10.0,55,0.00,,,0.00,meteohub,2013-02-13 23:32:00,
2013-02-13 15:37:00,60.1,43.3,30.25,SW,231,4.0,8.0,54,0.00,,,0.00,meteohub,2013-02-13 23:37:00,
2013-02-13 15:42:00,59.7,43.5,30.25,SW,217,3.0,7.0,55,0.00,,,0.00,meteohub,2013-02-13 23:42:00,
2013-02-13 15:47:00,59.5,43.9,30.25,WSW,239,5.0,7.0,56,0.00,,,0.00,meteohub,2013-02-13 23:47:00,
2013-02-13 15:52:00,59.5,43.9,30.25,SW,226,5.0,7.0,56,0.00,,,0.00,meteohub,2013-02-13 23:52:00,
2013-02-13 15:57:00,59.4,44.1,30.25,SSW,211,3.0,7.0,57,0.00,,,0.00,meteohub,2013-02-13 23:57:00,
2013-02-13 16:03:00,59.5,43.9,30.25,SW,224,4.0,6.0,56,0.00,,,0.00,meteohub,2013-02-14 00:03:00,
2013-02-13 16:08:00,59.5,44.2,30.24,South,191,4.0,6.0,57,0.00,,,0.00,meteohub,2013-02-14 00:08:00,
2013-02-13 16:13:00,59.2,44.4,30.24,SSW,196,4.0,6.0,58,0.00,,,0.00,meteohub,2013-02-14 00:13:00,
2013-02-13 16:18:00,59.0,45.1,30.24,SSW,202,2.0,7.0,60,0.00,,,0.00,meteohub,2013-02-14 00:18:00,
2013-02-13 16:23:00,58.8,45.3,30.24,SSW,206,4.0,7.0,61,0.00,,,0.00,meteohub,2013-02-14 00:23:00,
2013-02-13 16:28:00,58.6,45.3,30.24,SSW,193,4.0,7.0,61,0.00,,,0.00,meteohub,2013-02-14 00:28:00,
2013-02-13 16:33:00,58.3,45.3,30.24,SSW,194,4.0,7.0,62,0.00,,,0.00,meteohub,2013-02-14 00:33:00,
2013-02-13 16:38:00,57.9,45.9,30.23,South,173,4.0,7.0,64,0.00,,,0.00,meteohub,2013-02-14 00:38:00,
2013-02-13 16:43:00,57.7,45.3,30.23,SSW,202,3.0,7.0,63,0.00,,,0.00,meteohub,2013-02-14 00:43:00,
2013-02-13 16:48:00,57.7,45.7,30.23,SSW,211,2.0,7.0,64,0.00,,,0.00,meteohub,2013-02-14 00:48:00,
2013-02-13 16:53:00,57.4,46.0,30.23,SSW,194,4.0,6.0,66,0.00,,,0.00,meteohub,2013-02-14 00:53:00,
2013-02-13 16:58:00,56.8,45.7,30.23,South,190,5.0,6.0,66,0.00,,,0.00,meteohub,2013-02-14 00:58:00,
2013-02-13 17:03:00,56.1,45.3,30.23,SSW,209,5.0,7.0,67,0.00,,,0.00,meteohub,2013-02-14 01:03:00,
2013-02-13 17:08:00,55.6,45.1,30.23,South,187,6.0,7.0,68,0.00,,,0.00,meteohub,2013-02-14 01:08:00,
2013-02-13 17:13:00,55.2,45.1,30.23,SSW,204,3.0,7.0,69,0.00,,,0.00,meteohub,2013-02-14 01:13:00,
2013-02-13 17:18:00,54.9,45.0,30.23,South,178,4.0,7.0,69,0.00,,,0.00,meteohub,2013-02-14 01:18:00,
2013-02-13 17:23:00,54.7,45.1,30.23,South,180,4.0,6.0,70,0.00,,,0.00,meteohub,2013-02-14 01:23:00,
2013-02-13 17:28:00,54.0,44.8,30.23,South,186,2.0,6.0,71,0.00,,,0.00,meteohub,2013-02-14 01:28:00,
2013-02-13 17:33:00,53.6,44.8,30.23,SSW,198,1.0,5.0,72,0.00,,,0.00,meteohub,2013-02-14 01:33:00,
2013-02-13 17:38:00,53.1,45.0,30.23,SSW,198,3.0,5.0,74,0.00,,,0.00,meteohub,2013-02-14 01:38:00,
2013-02-13 17:43:00,52.5,44.8,30.23,SSW,198,3.0,5.0,75,0.00,,,0.00,meteohub,2013-02-14 01:43:00,
2013-02-13 17:48:00,51.6,44.2,30.23,SSW,198,1.0,4.0,76,0.00,,,0.00,meteohub,2013-02-14 01:48:00,
2013-02-13 17:53:00,51.4,43.7,30.23,SSW,198,2.0,4.0,75,0.00,,,0.00,meteohub,2013-02-14 01:53:00,
2013-02-13 17:58:00,53.1,44.2,30.23,SSW,198,2.0,4.0,72,0.00,,,0.00,meteohub,2013-02-14 01:58:00,
2013-02-13 18:03:00,52.7,43.5,30.23,SSW,198,1.0,3.0,71,0.00,,,0.00,meteohub,2013-02-14 02:03:00,
2013-02-13 18:08:00,51.4,43.5,30.23,SSW,198,2.0,3.0,74,0.00,,,0.00,meteohub,2013-02-14 02:08:00,
2013-02-13 18:13:00,52.9,44.1,30.23,SSW,198,0.0,3.0,72,0.00,,,0.00,meteohub,2013-02-14 02:13:00,
2013-02-13 18:18:00,51.3,43.5,30.22,SSW,198,0.0,3.0,75,0.00,,,0.00,meteohub,2013-02-14 02:18:00,
2013-02-13 18:23:00,50.2,43.5,30.23,SSW,198,1.0,3.0,78,0.00,,,0.00,meteohub,2013-02-14 02:23:00,
2013-02-13 18:29:00,51.1,43.5,30.23,SSW,198,1.0,2.0,75,0.00,,,0.00,meteohub,2013-02-14 02:29:00,
2013-02-13 18:34:00,49.8,42.6,30.23,SSW,198,0.0,2.0,76,0.00,,,0.00,meteohub,2013-02-14 02:34:00,
2013-02-13 18:39:00,48.7,43.5,30.23,SSW,198,0.0,2.0,82,0.00,,,0.00,meteohub,2013-02-14 02:39:00,
2013-02-13 18:44:00,48.4,43.2,30.23,SSW,198,2.0,2.0,82,0.00,,,0.00,meteohub,2013-02-14 02:44:00,
2013-02-13 18:49:00,48.0,43.3,30.23,SSW,198,1.0,2.0,84,0.00,,,0.00,meteohub,2013-02-14 02:49:00,
2013-02-13 18:54:00,47.8,43.0,30.23,SSW,198,0.0,2.0,83,0.00,,,0.00,meteohub,2013-02-14 02:54:00,
2013-02-13 18:59:00,47.7,43.0,30.23,SSW,198,0.0,2.0,84,0.00,,,0.00,meteohub,2013-02-14 02:59:00,
2013-02-13 19:04:00,47.7,43.0,30.23,SSW,198,0.0,2.0,84,0.00,,,0.00,meteohub,2013-02-14 03:04:00,
2013-02-13 19:09:00,47.3,42.8,30.23,SSW,198,1.0,2.0,84,0.00,,,0.00,meteohub,2013-02-14 03:09:00,
2013-02-13 19:14:00,46.9,42.6,30.23,SSW,198,1.0,2.0,85,0.00,,,0.00,meteohub,2013-02-14 03:14:00,
2013-02-13 19:19:00,46.8,42.8,30.23,SSW,198,3.0,3.0,86,0.00,,,0.00,meteohub,2013-02-14 03:19:00,
2013-02-13 19:24:00,46.6,42.3,30.23,NE,41,3.0,3.0,85,0.00,,,0.00,meteohub,2013-02-14 03:24:00,
2013-02-13 19:29:00,46.2,42.3,30.23,NE,41,4.0,4.0,86,0.00,,,0.00,meteohub,2013-02-14 03:29:00,
2013-02-13 19:34:00,46.0,42.4,30.23,NE,41,3.0,4.0,87,0.00,,,0.00,meteohub,2013-02-14 03:34:00,
2013-02-13 19:39:00,46.0,42.4,30.23,NE,41,3.0,4.0,87,0.00,,,0.00,meteohub,2013-02-14 03:39:00,
2013-02-13 19:44:00,46.0,42.4,30.24,NE,41,4.0,4.0,87,0.00,,,0.00,meteohub,2013-02-14 03:44:00,
2013-02-13 19:49:00,46.0,42.6,30.23,NNE,23,4.0,5.0,88,0.00,,,0.00,meteohub,2013-02-14 03:49:00,
2013-02-13 19:54:00,46.0,42.4,30.24,NE,36,3.0,5.0,87,0.00,,,0.00,meteohub,2013-02-14 03:54:00,
2013-02-13 19:59:00,46.0,42.1,30.24,NNE,29,4.0,5.0,86,0.00,,,0.00,meteohub,2013-02-14 03:59:00,
2013-02-13 20:04:00,45.7,41.7,30.24,NE,35,1.0,5.0,86,0.00,,,0.00,meteohub,2013-02-14 04:04:00,
2013-02-13 20:09:00,45.5,41.9,30.24,NE,34,3.0,5.0,87,0.00,,,0.00,meteohub,2013-02-14 04:09:00,
2013-02-13 20:14:00,45.3,41.7,30.24,NE,36,4.0,5.0,87,0.00,,,0.00,meteohub,2013-02-14 04:14:00,
2013-02-13 20:19:00,45.7,41.7,30.24,NE,35,4.0,5.0,86,0.00,,,0.00,meteohub,2013-02-14 04:19:00,
2013-02-13 20:24:00,45.9,41.5,30.24,NNE,26,4.0,5.0,85,0.00,,,0.00,meteohub,2013-02-14 04:24:00,
2013-02-13 20:29:00,45.9,41.4,30.24,NE,44,4.0,5.0,84,0.00,,,0.00,meteohub,2013-02-14 04:29:00,
2013-02-13 20:34:00,46.2,41.7,30.24,NNE,27,4.0,5.0,84,0.00,,,0.00,meteohub,2013-02-14 04:34:00,
2013-02-13 20:39:00,46.6,41.7,30.24,NE,44,3.0,5.0,83,0.00,,,0.00,meteohub,2013-02-14 04:39:00,
2013-02-13 20:44:00,46.8,41.2,30.25,ENE,57,3.0,5.0,81,0.00,,,0.00,meteohub,2013-02-14 04:44:00,
2013-02-13 20:49:00,47.8,41.4,30.24,NE,43,4.0,5.0,78,0.00,,,0.00,meteohub,2013-02-14 04:49:00,
2013-02-13 20:54:00,49.3,41.0,30.24,North,5,4.0,7.0,73,0.00,,,0.00,meteohub,2013-02-14 04:54:00,
2013-02-13 20:59:00,50.4,41.4,30.24,NE,46,3.0,7.0,71,0.00,,,0.00,meteohub,2013-02-14 04:59:00,
2013-02-13 21:00:00,50.4,41.4,30.24,NE,37,2.0,7.0,71,0.00,,,0.00,meteohub,2013-02-14 05:00:00,
2013-02-13 21:01:00,50.5,41.2,30.24,NE,46,5.0,7.0,70,0.00,,,0.00,meteohub,2013-02-14 05:01:00,
2013-02-13 21:06:00,50.5,41.2,30.24,NE,49,3.0,7.0,70,0.00,,,0.00,meteohub,2013-02-14 05:06:00,
2013-02-13 21:11:00,50.0,40.6,30.24,NNE,23,5.0,6.0,70,0.00,,,0.00,meteohub,2013-02-14 05:11:00,
2013-02-13 21:16:00,50.5,40.5,30.24,NE,40,3.0,6.0,68,0.00,,,0.00,meteohub,2013-02-14 05:16:00,
2013-02-13 21:21:00,50.7,41.0,30.24,NNE,24,5.0,6.0,69,0.00,,,0.00,meteohub,2013-02-14 05:21:00,
2013-02-13 21:26:00,50.7,40.1,30.24,NE,48,3.0,7.0,67,0.00,,,0.00,meteohub,2013-02-14 05:26:00,
2013-02-13 21:31:00,50.4,40.6,30.25,NE,43,4.0,7.0,69,0.00,,,0.00,meteohub,2013-02-14 05:31:00,
2013-02-13 21:36:00,50.9,40.3,30.25,NE,39,2.0,8.0,67,0.00,,,0.00,meteohub,2013-02-14 05:36:00,
2013-02-13 21:41:00,50.9,40.3,30.25,NE,42,3.0,8.0,67,0.00,,,0.00,meteohub,2013-02-14 05:41:00,
2013-02-13 21:46:00,50.9,40.6,30.25,North,351,3.0,8.0,68,0.00,,,0.00,meteohub,2013-02-14 05:46:00,
2013-02-13 21:51:00,50.7,40.1,30.25,NE,44,3.0,7.0,67,0.00,,,0.00,meteohub,2013-02-14 05:51:00,
2013-02-13 21:56:00,50.5,39.6,30.25,NE,51,4.0,7.0,66,0.00,,,0.00,meteohub,2013-02-14 05:56:00,
2013-02-13 22:01:00,50.2,39.2,30.25,NE,50,4.0,7.0,66,0.00,,,0.00,meteohub,2013-02-14 06:01:00,
2013-02-13 22:06:00,49.6,39.6,30.25,ENE,63,4.0,7.0,68,0.00,,,0.00,meteohub,2013-02-14 06:06:00,
2013-02-13 22:11:00,49.6,38.7,30.25,NNE,19,3.0,7.0,66,0.00,,,0.00,meteohub,2013-02-14 06:11:00,
2013-02-13 22:16:00,50.5,38.8,30.25,NNE,28,3.0,7.0,64,0.00,,,0.00,meteohub,2013-02-14 06:16:00,
2013-02-13 22:21:00,51.3,39.0,30.25,NE,45,4.0,7.0,63,0.00,,,0.00,meteohub,2013-02-14 06:21:00,
2013-02-13 22:26:00,52.0,39.0,30.25,NE,55,4.0,7.0,61,0.00,,,0.00,meteohub,2013-02-14 06:26:00,
2013-02-13 22:31:00,53.1,39.2,30.25,NNE,19,4.0,9.0,59,0.00,,,0.00,meteohub,2013-02-14 06:31:00,
2013-02-13 22:36:00,53.8,39.4,30.25,NE,36,3.0,9.0,58,0.00,,,0.00,meteohub,2013-02-14 06:36:00,
2013-02-13 22:41:00,53.2,39.2,30.25,NE,55,5.0,9.0,59,0.00,,,0.00,meteohub,2013-02-14 06:41:00,
2013-02-13 22:46:00,54.0,39.6,30.25,ENE,61,3.0,8.0,58,0.00,,,0.00,meteohub,2013-02-14 06:46:00,
2013-02-13 22:51:00,54.1,38.8,30.25,NE,48,6.0,8.0,56,0.00,,,0.00,meteohub,2013-02-14 06:51:00,
2013-02-13 22:56:00,54.1,38.8,30.25,NE,54,3.0,8.0,56,0.00,,,0.00,meteohub,2013-02-14 06:56:00,
2013-02-13 23:01:00,54.1,38.8,30.25,NE,50,5.0,8.0,56,0.00,,,0.00,meteohub,2013-02-14 07:01:00,
2013-02-13 23:06:00,55.2,38.3,30.25,NE,43,3.0,8.0,53,0.00,,,0.00,meteohub,2013-02-14 07:06:00,
2013-02-13 23:11:00,55.9,38.5,30.25,NE,52,6.0,8.0,52,0.00,,,0.00,meteohub,2013-02-14 07:11:00,
2013-02-13 23:16:00,56.8,38.5,30.25,NNE,32,5.0,11.0,50,0.00,,,0.00,meteohub,2013-02-14 07:16:00,
2013-02-13 23:21:00,57.2,39.2,30.25,NNE,29,3.0,11.0,51,0.00,,,0.00,meteohub,2013-02-14 07:21:00,
2013-02-13 23:26:00,57.0,38.1,30.25,NE,49,4.0,11.0,49,0.00,,,0.00,meteohub,2013-02-14 07:26:00,
2013-02-13 23:31:00,57.6,37.9,30.25,ENE,61,7.0,10.0,48,0.00,,,0.00,meteohub,2013-02-14 07:31:00,
2013-02-13 23:36:00,58.1,37.4,30.25,North,355,8.0,12.0,46,0.00,,,0.00,meteohub,2013-02-14 07:36:00,
2013-02-13 23:41:00,58.5,37.8,30.25,NE,51,8.0,12.0,46,0.00,,,0.00,meteohub,2013-02-14 07:41:00,
2013-02-13 23:46:00,58.5,37.2,30.25,NE,50,10.0,14.0,45,0.00,,,0.00,meteohub,2013-02-14 07:46:00,
2013-02-13 23:51:00,58.6,37.4,30.25,North,0,5.0,15.0,45,0.00,,,0.00,meteohub,2013-02-14 07:51:00,
2013-02-13 23:56:00,58.6,36.9,30.25,NE,38,6.0,15.0,44,0.00,,,0.00,meteohub,2013-02-14 07:56:00,